[[{"header":{"parameterUnit":"m.s-1","parameterCategory":1,"la1":30.2991,"la2":30.254,"lo1":-89.0895,"lo2":-89.0444,"dy":0.0017,"dx":0.0017,"nx":28,"ny":28,"refTime":"2024-12-22T09:00:00:Z","depth":0,"parameterNumber":2,"parameterNumberName":"U-component_of_WINDS"},"data":[0,0,0,0,0,0,0,0,0,0,0,0,0,0,0,0,0,0,0,0,0,0,0,0,0,0,0,0,0,0,0,0,0,0,0,0,0,0,0,0,0,0,0,0,0,0,0,0,0,0,0,0,0,0,0,0,0,0,-4.2914,-4.2915,0,-4.3031,-4.3032,-4.3034,-4.2941,-4.2937,-4.2933,-4.2929,-4.3051,-4.3058,-4.3065,0,0,0,0,0,0,0,0,0,0,0,0,0,-4.2613,-4.2619,-4.2914,-4.2915,-4.2917,-4.3031,-4.3032,-4.3034,-4.2941,-4.2936,-4.2932,-4.2927,-4.3049,-4.3057,-4.3065,0,0,0,0,0,0,0,0,0,0,0,0,0,-4.2738,-4.2621,-4.2914,-4.2884,-4.2883,-4.303,-4.3032,-4.3034,-4.2942,-4.2936,-4.293,-4.2925,-4.3046,-4.3056,-4.3066,-4.325,0,0,-4.3098,-4.3103,0,0,0,0,0,0,0,0,-4.2731,-4.275,-4.2887,-4.2887,-4.2885,-4.2965,-4.2971,-4.3107,-4.2944,-4.292,-4.2929,-4.2922,-4.3027,-4.3039,-4.3074,-4.3256,-4.3261,-4.3099,-4.3105,-4.311,-4.3113,0,0,0,0,0,0,0,-4.2723,-4.2744,-4.296,-4.2889,-4.2888,-4.2866,-4.2877,-4.2996,-4.3006,-4.2921,-4.2915,-4.293,-4.3026,-4.3064,-4.3076,-4.3263,-4.3099,-4.3108,-4.3115,-4.3119,-4.3602,-4.3609,0,0,0,0,0,0,-4.2717,-4.2737,-4.2956,-4.2964,-4.2792,-4.2876,-4.2889,-4.2945,-4.3004,-4.3007,-4.2935,-4.2925,-4.3049,-4.3064,-4.308,-4.33,-4.311,-4.312,-4.3126,-4.3596,-4.3604,-4.3611,0,0,0,0,0,0,-4.2711,-4.2737,-4.2952,-4.2849,-4.2875,-4.2888,-4.2952,-4.2951,-4.2989,-4.3014,-4.3016,-4.2972,-4.3045,-4.3065,-4.3209,-4.3303,-4.3124,-4.3134,-4.3588,-4.3598,-4.3608,-4.3741,0,0,0,0,0,0,-4.2702,-4.2736,-4.2805,-4.2851,-4.288,-4.3078,-4.2958,-4.2957,-4.3007,-4.2996,-4.305,-4.3053,-4.3042,-4.3194,-4.3219,-4.3314,-4.3142,-4.358,-4.3593,-4.3604,-4.3728,-4.3754,-4.3777,0,0,0,0,0,-4.2692,-4.2838,-4.2809,-4.2836,-4.2967,-4.3083,-4.31,-4.3084,-4.3015,-4.3085,-4.3102,-4.3051,-4.3288,-4.3209,-4.3237,-4.3337,-4.3574,-4.3589,-4.3603,-4.3717,-4.3749,-4.3776,0,0,0,0,0,0,-4.2802,-4.2843,-4.2811,-4.2976,-4.3027,-4.3067,-4.3155,-4.3118,-4.319,-4.3176,-4.3153,-4.3167,-4.3318,-4.3341,-4.3252,-4.3518,-4.342,-4.3441,-4.3497,-4.3528,-4.3551,-4.3543,-4.3151,0,0,0,0,0,-4.2846,-4.2936,-4.2967,-4.311,-4.3137,-4.3142,-4.3192,-4.3175,-4.3227,-4.3249,-4.3275,-4.3328,-4.3415,-4.3472,-4.3553,-4.3731,-4.3742,-4.3813,-4.3837,-4.3857,-4.3876,-4.3974,-4.4006,-4.366,-4.366,-4.3659,0,0,-4.2937,-4.297,-4.3029,-4.3133,-4.317,-4.3266,-4.3161,-4.3266,-4.3337,-4.3265,-4.3402,-4.3423,-4.3481,-4.3643,-4.3716,-4.3667,-4.3974,-4.3876,-4.3892,-4.39,-4.3992,-4.4025,-4.4054,-4.367,-4.3668,-4.3667,0,0,-4.3151,-4.3185,-4.3308,-4.3348,-4.3406,-4.3408,-4.3438,-4.3485,-4.3496,-4.3633,-4.3582,-4.3666,-4.3815,-4.3859,-4.3901,-4.4134,-4.4091,-4.4161,-4.4287,-4.4383,-4.441,-4.4434,-4.4519,-4.4549,-4.4179,-4.418,-4.418,0,-4.3257,-4.3398,-4.3376,-4.3486,-4.3534,-4.3473,-4.3598,-4.3638,-4.372,-4.3755,-4.3699,-4.3886,-4.3921,-4.4093,-4.415,-4.4185,-4.422,-4.4155,-4.4408,-4.4432,-4.4454,-4.4534,-4.4566,-4.4188,-4.4187,-4.4186,-4.4185,0,-4.3526,-4.3625,-4.3717,-4.3798,-4.3856,-4.3973,-4.3971,-4.4032,-4.4011,-4.402,-4.4161,-4.4201,-4.4289,-4.4328,-4.4308,-4.4499,-4.4467,-4.441,-4.4312,-4.4495,-4.4571,-4.4601,-4.42,-4.4197,-4.4194,-4.4192,0,0,-4.3813,-4.3881,-4.3916,-4.3952,-4.4012,-4.4088,-4.4203,-4.4289,-4.4343,-4.4402,-4.4499,-4.4627,-4.4575,-4.4623,-4.4607,-4.4691,-4.4875,-4.4624,-4.4625,-4.467,-4.5089,-4.5132,-4.5168,-4.4846,-4.4852,-4.4856,-4.5084,0,-4.4032,-4.4231,-4.4216,-4.4404,-4.4496,-4.444,-4.454,-4.4588,-4.46,-4.4681,-4.4693,-4.4785,-4.4709,-4.4738,-4.4818,-4.4835,-4.4959,-4.4818,-4.4938,-4.4942,-4.4926,-4.5207,-4.5253,-4.5466,-4.5114,-4.5119,-4.5122,0,-4.4313,-4.4382,-4.4579,-4.4627,-4.4665,-4.4755,-4.4834,-4.491,-4.4965,-4.4968,-4.5022,-4.4992,-4.511,-4.5008,-4.517,-4.5075,-4.5123,-4.5139,-4.5147,-4.5158,-4.5044,-4.5228,-4.5534,-4.5566,-4.5168,-4.5164,-4.5161,0,-4.4505,-4.4647,-4.4783,-4.4816,-4.4874,-4.494,-4.4967,-4.5015,-4.5069,-4.5137,-4.5172,-4.5254,-4.5299,-4.5364,-4.5358,-4.5284,-4.5524,-4.5421,-4.5531,-4.5532,-4.5585,-4.5582,-4.5904,-4.5614,-4.5613,-4.5613,-4.5612,0,-4.4751,-4.4875,-4.4871,-4.4955,-4.5093,-4.5074,-4.5211,-4.5231,-4.5275,-4.5363,-4.532,-4.5404,-4.539,-4.5475,-4.5471,-4.5607,-4.5628,-4.5634,-4.5632,-4.5639,-4.5639,-4.5671,-4.5656,-4.5621,-4.5619,-4.5618,-4.5616,0,-4.4989,-4.4991,-4.5137,-4.518,-4.5194,-4.5294,-4.5331,-4.5412,-4.542,-4.5532,-4.5558,-4.5571,-4.5669,-4.5669,-4.5781,-4.5778,-4.5945,-4.5925,-4.5927,-4.5923,-4.6034,-4.6024,-4.639,-4.6437,-4.6115,-4.6118,-4.612,0,-4.5146,-4.524,-4.5294,-4.535,-4.5381,-4.5472,-4.5526,-4.5512,-4.557,-4.564,-4.5713,-4.5806,-4.588,-4.6039,-4.6059,-4.6145,-4.6128,-4.625,-4.614,-4.6145,-4.6132,-4.6127,-4.6137,-4.6272,-4.6275,-4.6278,-4.6281,0,-4.5426,-4.5423,-4.5502,-4.5583,-4.5649,-4.5712,-4.577,-4.5819,-4.5812,-4.588,-4.5979,-4.6036,-4.615,-4.6244,-4.6327,-4.6356,-4.6319,-4.6315,-4.6345,-4.6354,-4.6351,-4.6356,-4.5987,-4.6307,-4.6304,-4.6302,-4.6301,-4.63,-4.5629,-4.5711,-4.5762,-4.5852,-4.5895,-4.595,-4.6029,-4.6047,-4.6129,-4.622,-4.6207,-4.6318,-4.6372,-4.6479,-4.6516,-4.6603,-4.656,-4.6604,-4.6615,-4.6627,-4.6639,-4.6337,-4.6618,-4.6617,-4.6616,-4.6616,-4.6615,0,-4.5908,-4.5938,-4.6022,-4.6105,-4.6177,-4.6134,-4.6196,-4.6259,-4.6357,-4.641,-4.6484,-4.6599,-4.669,-4.6718,-4.6806,-4.6871,-4.6856,-4.6895,-4.6891,-4.6898,-4.6671,-4.6637,-4.6906,-4.6906,-4.6906,-4.6906,-4.6905,-4.6905,-4.6062,-4.6198,-4.6201,-4.6358,-4.6387,-4.6495,-4.6535,-4.6587,-4.6629,-4.6759,-4.6834,-4.6851,-4.6895,-4.6986,-4.7069,-4.7074,-4.711,-4.7156,-4.7156,-4.6943,-4.6914,-4.6886,-4.6854,-4.7164,-4.7164,-4.7375,-4.7377,-4.7379]},{"header":{"parameterUnit":"m.s-1","parameterCategory":1,"la1":30.2991,"la2":30.254,"lo1":-89.0895,"lo2":-89.0444,"dy":0.0017,"dx":0.0017,"nx":28,"ny":28,"refTime":"2024-12-22T09:00:00:Z","depth":0,"parameterNumber":3,"parameterNumberName":"V-component_of_WINDS"},"data":[0,0,0,0,0,0,0,0,0,0,0,0,0,0,0,0,0,0,0,0,0,0,0,0,0,0,0,0,0,0,0,0,0,0,0,0,0,0,0,0,0,0,0,0,0,0,0,0,0,0,0,0,0,0,0,0,0,0,-1.2964,-1.2964,0,-1.2966,-1.2966,-1.2966,-1.2942,-1.2942,-1.2941,-1.294,-1.2943,-1.2944,-1.2945,0,0,0,0,0,0,0,0,0,0,0,0,0,-1.2941,-1.2942,-1.2964,-1.2964,-1.2964,-1.2966,-1.2966,-1.2966,-1.2942,-1.2942,-1.2941,-1.294,-1.2943,-1.2944,-1.2945,0,0,0,0,0,0,0,0,0,0,0,0,0,-1.2948,-1.2942,-1.2964,-1.2953,-1.2952,-1.2966,-1.2966,-1.2966,-1.2942,-1.2941,-1.2941,-1.294,-1.2943,-1.2944,-1.2945,-1.2971,0,0,-1.2948,-1.2948,0,0,0,0,0,0,0,0,-1.2948,-1.2949,-1.2954,-1.2954,-1.2952,-1.2953,-1.2959,-1.2968,-1.2943,-1.2946,-1.294,-1.2939,-1.2947,-1.2948,-1.295,-1.2971,-1.2971,-1.2948,-1.2949,-1.2949,-1.2949,0,0,0,0,0,0,0,-1.2947,-1.2949,-1.2965,-1.2955,-1.2953,-1.2948,-1.2947,-1.296,-1.2952,-1.2946,-1.2944,-1.2944,-1.2947,-1.295,-1.295,-1.2971,-1.2948,-1.2949,-1.295,-1.295,-1.3011,-1.3012,0,0,0,0,0,0,-1.2948,-1.2948,-1.2965,-1.2965,-1.2948,-1.2949,-1.2949,-1.2954,-1.2952,-1.2951,-1.2945,-1.2943,-1.2948,-1.2949,-1.295,-1.298,-1.2949,-1.295,-1.2951,-1.301,-1.3011,-1.3012,0,0,0,0,0,0,-1.2948,-1.295,-1.2965,-1.2956,-1.2958,-1.295,-1.2956,-1.2954,-1.2957,-1.2952,-1.295,-1.295,-1.2948,-1.2949,-1.2965,-1.2979,-1.2951,-1.2952,-1.3009,-1.3011,-1.3012,-1.3039,0,0,0,0,0,0,-1.2947,-1.295,-1.296,-1.2957,-1.2958,-1.298,-1.2957,-1.2955,-1.2959,-1.2956,-1.2955,-1.2954,-1.2947,-1.2964,-1.2966,-1.298,-1.2952,-1.3008,-1.301,-1.3011,-1.3037,-1.3041,-1.3045,0,0,0,0,0,-1.2947,-1.2968,-1.296,-1.2962,-1.297,-1.2981,-1.2982,-1.2972,-1.296,-1.297,-1.2966,-1.2954,-1.2977,-1.2966,-1.2968,-1.2983,-1.3007,-1.3009,-1.3011,-1.3035,-1.304,-1.3045,0,0,0,0,0,0,-1.2974,-1.2967,-1.2959,-1.298,-1.2981,-1.2977,-1.2989,-1.2979,-1.2984,-1.2981,-1.297,-1.297,-1.2988,-1.2987,-1.2974,-1.3007,-1.299,-1.2993,-1.3007,-1.3012,-1.3016,-1.3016,-1.2953,0,0,0,0,0,-1.2982,-1.2991,-1.2985,-1.3004,-1.3005,-1.2997,-1.3001,-1.2993,-1.2994,-1.2995,-1.2992,-1.2994,-1.3001,-1.3007,-1.3013,-1.3036,-1.3035,-1.3047,-1.3051,-1.3055,-1.3057,-1.3068,-1.3073,-1.302,-1.302,-1.302,0,0,-1.3,-1.2997,-1.3004,-1.3009,-1.3009,-1.3018,-1.2997,-1.3008,-1.3015,-1.2997,-1.3012,-1.301,-1.3011,-1.303,-1.3039,-1.303,-1.3072,-1.3058,-1.306,-1.3061,-1.3071,-1.3076,-1.3081,-1.3021,-1.3021,-1.3021,0,0,-1.3036,-1.3035,-1.305,-1.305,-1.305,-1.3044,-1.3048,-1.3045,-1.3043,-1.3057,-1.3043,-1.3051,-1.3065,-1.3066,-1.3068,-1.3103,-1.3092,-1.3105,-1.3127,-1.3138,-1.3142,-1.3146,-1.3157,-1.3162,-1.3108,-1.3108,-1.3108,0,-1.3058,-1.3071,-1.306,-1.3071,-1.3074,-1.3056,-1.3071,-1.3072,-1.3075,-1.3077,-1.3067,-1.3082,-1.3082,-1.3101,-1.3109,-1.3112,-1.3115,-1.3106,-1.3142,-1.3146,-1.3149,-1.316,-1.3165,-1.311,-1.3109,-1.3109,-1.3109,0,-1.3098,-1.3107,-1.3119,-1.3121,-1.3125,-1.3138,-1.3128,-1.3134,-1.3126,-1.3121,-1.3135,-1.3134,-1.3139,-1.3143,-1.3136,-1.3161,-1.3155,-1.3144,-1.3127,-1.3156,-1.3166,-1.317,-1.3112,-1.3111,-1.3111,-1.3111,0,0,-1.3153,-1.3146,-1.3151,-1.3151,-1.3148,-1.3155,-1.3168,-1.3172,-1.3176,-1.3178,-1.3188,-1.3199,-1.3188,-1.319,-1.3183,-1.3192,-1.3219,-1.3179,-1.3179,-1.3186,-1.3245,-1.3254,-1.3259,-1.3212,-1.3213,-1.3213,-1.3245,0,-1.3187,-1.3207,-1.3197,-1.3218,-1.3226,-1.3209,-1.3219,-1.3219,-1.3214,-1.3221,-1.3216,-1.3223,-1.3209,-1.321,-1.3218,-1.3214,-1.3231,-1.3212,-1.3221,-1.3221,-1.3221,-1.3265,-1.3274,-1.3304,-1.3249,-1.325,-1.325,0,-1.3231,-1.3233,-1.3255,-1.325,-1.3253,-1.3263,-1.3265,-1.3271,-1.327,-1.3266,-1.3268,-1.3258,-1.3269,-1.3252,-1.3267,-1.3254,-1.3257,-1.3255,-1.3256,-1.3257,-1.3237,-1.3266,-1.3314,-1.3318,-1.3257,-1.3256,-1.3256,0,-1.3268,-1.3277,-1.329,-1.3291,-1.3286,-1.3292,-1.3291,-1.3289,-1.3292,-1.3294,-1.3295,-1.33,-1.3302,-1.3305,-1.3296,-1.3284,-1.3312,-1.3294,-1.3309,-1.3309,-1.3316,-1.3315,-1.3364,-1.3318,-1.3318,-1.3318,-1.3318,0,-1.3308,-1.3322,-1.3307,-1.3315,-1.333,-1.3317,-1.3333,-1.3329,-1.3327,-1.3334,-1.332,-1.3327,-1.3315,-1.3321,-1.3314,-1.3327,-1.3328,-1.3325,-1.3323,-1.3327,-1.3327,-1.3328,-1.3326,-1.3319,-1.3319,-1.3319,-1.3318,0,-1.3352,-1.3342,-1.3356,-1.3349,-1.3348,-1.3359,-1.3353,-1.3361,-1.3355,-1.3364,-1.3366,-1.3356,-1.3363,-1.3354,-1.3359,-1.3354,-1.3372,-1.3367,-1.3372,-1.3371,-1.3386,-1.3384,-1.3437,-1.3443,-1.3394,-1.3394,-1.3395,0,-1.3378,-1.3388,-1.3382,-1.3385,-1.3384,-1.339,-1.3392,-1.338,-1.3383,-1.3382,-1.339,-1.3394,-1.3397,-1.3408,-1.3402,-1.3406,-1.3401,-1.3419,-1.3401,-1.3404,-1.34,-1.34,-1.34,-1.3423,-1.3423,-1.3424,-1.3424,0,-1.3425,-1.3419,-1.3423,-1.3425,-1.3428,-1.3429,-1.3429,-1.3433,-1.342,-1.3424,-1.343,-1.3432,-1.3437,-1.3442,-1.3444,-1.3442,-1.3431,-1.343,-1.3433,-1.3436,-1.3439,-1.3437,-1.3382,-1.3429,-1.3428,-1.3428,-1.3428,-1.3427,-1.346,-1.3468,-1.3464,-1.3468,-1.3467,-1.3467,-1.3473,-1.3467,-1.3472,-1.3474,-1.3467,-1.3474,-1.3472,-1.3473,-1.3472,-1.3478,-1.347,-1.3475,-1.3476,-1.3478,-1.348,-1.3438,-1.3478,-1.3478,-1.3478,-1.3478,-1.3478,0,-1.3506,-1.3502,-1.3506,-1.3506,-1.3509,-1.3498,-1.3497,-1.35,-1.3507,-1.3505,-1.3508,-1.3514,-1.3518,-1.3512,-1.3515,-1.3521,-1.3515,-1.3522,-1.3521,-1.3521,-1.3487,-1.3483,-1.3526,-1.3526,-1.3526,-1.3526,-1.3526,-1.3526,-1.353,-1.3542,-1.3535,-1.3546,-1.3543,-1.3549,-1.3549,-1.3549,-1.3548,-1.3555,-1.3558,-1.3553,-1.355,-1.3552,-1.3555,-1.3553,-1.3555,-1.3563,-1.3559,-1.3528,-1.3523,-1.3519,-1.3515,-1.3564,-1.3564,-1.3592,-1.3593,-1.3593]}]]